London-Corbin, KY

10:07 PM EDT on July 18, 2019 (GMT -0400)
London-Corbin / McKee

Weather History for KLOZ - May, 2019

Change the Weather History Date:

Wednesday, May 15, 2019

  Actual Average Record
Temperature  
Mean Temperature 55 °F 64 °F  
Max Temperature 68 °F 76 °F 88 °F (1991)
Min Temperature 42 °F 53 °F 37 °F (1959)
Degree Days  
Heating Degree Days 10 3  
Month to date heating degree days 44 61  
Since 1 July heating degree days 4024 4162  
Cooling Degree Days 0 3  
Month to date cooling degree days 31 27  
Year to date cooling degree days 43 53  
Growing Degree Days 6 (Base 50)    
Moisture  
Dew Point 47 °F    
Average Humidity 73    
Maximum Humidity 100    
Minimum Humidity 45    
Precipitation  
Precipitation 0.00 in 0.18 in 2.04 in (1983)
Sea Level Pressure  
Sea Level Pressure 30.04 in    
Wind  
Wind Speed 3 mph (SSW)    
Max Wind Speed 12 mph    
Max Gust Speed 17 mph    
Visibility 10 miles    
Events      
T = Trace of Precipitation, MM = Missing Value Source: NWS Daily Summary

Daily Weather History Graph

Daily Weather History Graph

Search for Another Location

Airport or City:

Astronomy

May. 15, 2019 Rise Set
Actual Time 6:28 AM EDT 8:37 PM EDT
Civil Twilight 5:59 AM EDT 9:06 PM EDT
Nautical Twilight 5:23 AM EDT 9:42 PM EDT
Astronomical Twilight 4:45 AM EDT 10:20 PM EDT
Moon 5:13 PM EDT (5/15) 4:46 AM EDT (5/15)
Length of Visible Light 15h 07m
Length of Day
14h 09m
Waxing Gibbous, 87% of the Moon is Illuminated
May 15
Waxing Gibbous
May 18
Full
May 26
Last Quarter
Jun 3
New
Jun 10
First Quarter

Hourly Weather History & Observations

Time (EDT) Temp. Dew Point Humidity Pressure Visibility Wind Dir Wind Speed Gust Speed Precip Events Conditions
12:53 AM 48.0 °F 46.0 °F 93% 30.06 in 10.0 mi Calm Calm - N/A   Clear
1:53 AM 46.9 °F 46.0 °F 97% 30.05 in 9.0 mi Calm Calm - N/A   Clear
2:53 AM 45.0 °F 45.0 °F 100% 30.04 in 8.0 mi Calm Calm - N/A   Clear
3:53 AM 45.0 °F 44.1 °F 97% 30.04 in 9.0 mi Calm Calm - N/A   Clear
4:53 AM 44.1 °F 43.0 °F 96% 30.04 in 9.0 mi Calm Calm - N/A   Clear
5:53 AM 44.1 °F 43.0 °F 96% 30.04 in 10.0 mi Calm Calm - N/A   Clear
6:53 AM 43.0 °F 43.0 °F 100% 30.05 in 9.0 mi Calm Calm - N/A   Clear
7:53 AM 46.9 °F 46.0 °F 97% 30.07 in 10.0 mi Calm Calm - N/A   Clear
8:53 AM 52.0 °F 48.9 °F 89% 30.07 in 10.0 mi ESE 3.5 mph - N/A   Clear
9:53 AM 57.9 °F 48.9 °F 72% 30.08 in 10.0 mi South 4.6 mph - N/A   Clear
10:53 AM 63.0 °F 46.9 °F 56% 30.07 in 10.0 mi South 5.8 mph - N/A   Clear
11:53 AM 66.0 °F 46.0 °F 48% 30.07 in 10.0 mi Variable 4.6 mph - N/A   Partly Cloudy
12:53 PM 66.9 °F 46.0 °F 47% 30.06 in 10.0 mi SW 9.2 mph - N/A   Scattered Clouds
1:53 PM 68.0 °F 46.0 °F 45% 30.04 in 10.0 mi West 6.9 mph - N/A   Mostly Cloudy
2:53 PM 66.9 °F 46.9 °F 49% 30.03 in 10.0 mi South 8.1 mph - N/A   Overcast
3:53 PM 66.0 °F 46.0 °F 48% 30.02 in 10.0 mi WSW 8.1 mph - N/A   Overcast
4:53 PM 64.9 °F 46.9 °F 52% 30.01 in 10.0 mi WSW 6.9 mph - N/A   Overcast
5:53 PM 64.9 °F 46.9 °F 52% 30.02 in 10.0 mi WSW 4.6 mph - N/A   Overcast
6:53 PM 64.9 °F 46.9 °F 52% 30.01 in 10.0 mi SW 4.6 mph - N/A   Mostly Cloudy
7:53 PM 64.9 °F 46.9 °F 52% 30.00 in 10.0 mi Calm Calm - N/A   Overcast
8:53 PM 62.1 °F 51.1 °F 67% 30.01 in 10.0 mi Calm Calm - N/A   Scattered Clouds
9:53 PM 57.0 °F 52.0 °F 83% 30.01 in 10.0 mi Calm Calm - N/A   Partly Cloudy
10:53 PM 54.0 °F 52.0 °F 93% 30.03 in 10.0 mi Calm Calm - N/A   Mostly Cloudy
11:53 PM 54.0 °F 52.0 °F 93% 30.02 in 10.0 mi Calm Calm - N/A   Overcast